#timestamp,LO_Frequency,Hit,StdDev 
1589043615.6,286047002.2,N
1589043635.5,286047002.6,N
1589043655.3,286047000.6,N
1589043675.2,286047002.4,N
1589043695.9,286046999.7,N
1589043715.7,286046999.9,N
1589043735.6,286047002.8,N
1589043755.4,286046998.1,N
1589043775.3,286046998.6,N
1589043795.1,286047000.9,N
1589043796.0,286047000.9,N
1589043815.8,286047000.6,N
1589043835.7,286047000.5,N
1589043855.5,286047000.9,N
1589043875.3,286047000.8,N
1589043895.2,286046996.5,N
1589043915.0,286047002.5,N
1589043946.0,286047002.4,E
1589043955.9,286047002.8,N
1589043975.7,286046998.9,P
1589043995.6,286046998.4,N
1589044015.4,286046998.8,N
1589044035.2,286047000.7,N
1589044055.1,286047002.4,N
1589044056.0,286047002.4,N
1589044075.8,286047002.7,N
1589044095.6,286046999.7,N
1589044115.5,286047000.2,N
1589044135.3,286047000.2,N
1589044155.2,286047002.8,N
1589044175.9,286047002.5,N
1589044195.7,286047000.4,N
1589044215.6,286047000.4,N
1589044235.4,286047000.1,N
1589044255.3,286046999.8,N
1589044275.1,286047000.4,N
1589044276.0,286047000.4,N
1589044295.8,286047002.2,N
1589044315.7,286047002.8,N
1589044335.5,286047000.2,N
1589044355.3,286047000.2,N
1589044375.2,286047002.4,N
1589044395.0,286047001.5,N
1589044395.9,286047001.5,N
1589044415.8,286047002.1,N
1589044435.6,286047002.2,N
1589044455.4,286047000.6,N
1589044475.3,286046999.9,N
1589044495.1,286047002.1,N
1589044515.9,286047002.2,N
1589044535.7,286047001.5,N
1589044555.5,286047001.0,N
1589044575.4,286047002.6,N
1589044595.2,286047002.6,N
1589044615.0,286047000.1,N
1589044615.9,286047000.1,N
1589044635.8,286047001.9,N
1589044655.6,286047002.7,N
1589044675.5,286046999.7,N
1589044695.3,286047002.3,N
1589044715.1,286047000.1,N
1589044735.9,286047002.3,N
1589044755.7,286047002.2,N
1589044775.6,286047001.6,N
1589044795.4,286047003.8,Y
1589044815.2,286047001.5,P
1589044835.1,286047002.0,P
1589044836.0,286047002.0,P
1589044855.8,286047002.7,Y
1589044875.6,286047000.9,P
1589044895.5,286047000.4,N
1589044915.3,286046999.9,N
1589044935.2,286046999.8,N
1589044955.9,286047000.8,N
1589044975.7,286047001.0,N
1589044995.6,286047000.2,N
1589045015.4,286047000.3,N
1589045035.3,286047002.8,Y
1589045055.1,286047001.0,P
1589045056.0,286047001.0,P
1589045075.8,286046996.5,P
1589045095.7,286046995.1,N
1589045115.5,286046997.8,N
1589045135.3,286046998.8,N
1589045155.2,286046999.8,N
1589045175.0,286047002.6,N
1589045175.9,286047002.6,N
1589045195.8,286047000.1,N
1589045215.6,286047000.3,N
1589045235.4,286047002.7,N
1589045255.3,286046999.9,N
1589045275.1,286046999.8,N
1589045295.9,286047002.3,N
1589045315.7,286047001.9,N
1589045335.5,286047002.4,N
1589045355.4,286047002.1,N
1589045375.2,286047002.5,N
1589045395.0,286047002.3,N
1589045395.9,286047002.3,N
1589045415.8,286047002.3,N
1589045435.6,286047001.6,N
1589045455.5,286047000.4,N
1589045475.3,286047000.4,N
1589045495.1,286047002.1,N
1589045515.9,286047002.5,N
1589045535.7,286047002.5,N
1589045555.6,286047002.3,N
1589045575.4,286047002.7,N
1589045595.2,286047004.3,N
1589045615.1,286047002.0,N
1589045616.0,286047002.0,N
1589045635.8,286047001.5,N
1589045655.7,286047001.8,N
1589045675.5,286047003.5,N
1589045695.3,286047003.9,Y
1589045715.2,286047001.6,P
1589045735.0,286047002.0,P
1589045735.9,286047002.0,P
1589045755.7,286046999.7,N
1589045775.6,286047000.3,N
1589045795.4,286047000.4,N
1589045815.3,286046999.7,N
1589045835.1,286047000.8,N
1589045855.8,286047000.3,N
1589045875.7,286046998.1,N
1589045895.5,286047000.4,N
1589045915.4,286047002.3,N
1589045935.2,286046998.3,N
1589045955.0,286046998.1,N
1589045955.9,286046998.1,N
1589045975.8,286047000.1,N
1589045995.6,286047002.1,N
1589046015.4,286047000.7,N
1589046035.3,286046998.2,N
1589046055.1,286047000.9,N
1589046075.9,286047000.9,N
1589046095.7,286047000.5,N
1589046115.5,286047000.2,N
1589046135.4,286046999.9,N
1589046155.2,286047002.3,N
1589046175.0,286047002.0,N
1589046176.0,286047002.0,N
1589046195.8,286047002.2,N
1589046215.6,286047001.7,N
1589046235.5,286046998.6,N
1589046255.3,286047000.5,N
1589046275.1,286046999.7,N
1589046295.9,286047000.5,N
1589046315.7,286047000.0,N
1589046335.6,286047000.4,N
1589046355.4,286046999.7,N
1589046375.2,286047002.0,N
1589046395.1,286047002.0,N
1589046396.0,286047002.0,N
1589046415.8,286047004.0,N
1589046435.6,286047001.5,N
1589046455.5,286047002.5,N
1589046475.3,286047001.9,N
1589046495.2,286047002.4,N
1589046515.0,286047001.8,N
1589046515.9,286047001.8,N
1589046535.7,286047004.0,Y
1589046555.6,286047002.7,P
1589046575.4,286046999.7,N
1589046595.3,286047001.0,N
1589046615.1,286047000.5,N
1589046635.8,286046998.4,N
1589046655.7,286046996.7,N
1589046675.5,286046997.4,N
1589046695.4,286046997.4,N
1589046715.2,286046997.7,N
1589046735.0,286046996.7,N
1589046735.9,286046996.7,N
1589046755.8,286046995.1,N
1589046775.6,286046993.7,N
1589046795.4,286046997.7,N
1589046815.3,286046997.6,N
1589046835.1,286046997.1,N
1589046855.9,286046995.3,N
1589046875.7,286046995.1,N
1589046895.5,286046995.7,N
1589046915.4,286046996.0,N
1589046935.2,286046994.1,N
1589046955.1,286046990.3,Y
1589046956.0,286046990.3,P
1589046975.8,286046994.2,N
1589046995.6,286046994.8,N
1589047015.5,286046991.9,Y
1589047035.3,286046996.7,P
1589047055.2,286047001.1,N
1589047075.9,286046998.1,N
1589047095.7,286046999.0,N
1589047115.6,286046998.8,N
1589047135.4,286047000.6,N
1589047155.2,286047000.9,N
1589047175.1,286047002.8,N
1589047176.0,286047002.8,N
1589047195.8,286046999.7,N
